Spokane Fairchild, WA
on Thursday, February 21, 2013

Thursday
Previous Day Next Day
Daily Summary
 ActualAverage (KGEG)Record (KGEG)
Temperature
Mean Temperature °F / °C 34°F / 1°C  
Max Temperature 36°F / 2°C 41°F / 5°C 60°F / 15°C (1958)
Min Temperature 24°F / -4°C 27°F / -3°C -2°F / -18°C (1894)
Degree Days
Heating Degree Days 35 31  
Month to date heating degree days 684  
Since 1 July heating degree days 4617  
Cooling Degree Days 0 0  
Month to date cooling degree days 0  
Year to date cooling degree days 0  
Moisture
Dew Point 29°F / -2°C   
Average Humidity 93    
Maximum Humidity 100    
Minimum Humidity 81    
Precipitation
Precipitation 0.01 in / 0.25 cm 0.04 in / 1.02 cm 0.49 in / 1.24 cm (1936)
Month to date precipitation 0.98  
Year to date precipitation 2.77  
Snow
Snow 0.00 in / 0.00 cm 0.20 in / 0.51 cm 6.60 in / 16.76 cm (1936)
Month to date snowfall 5.4  
Since 1 July snowfall 38.9  
Snow Depth in / cm   
Wind
Wind Speed 8 mph / 13 km/h   
Max Wind Speed 14 mph / 23 km/h   
Max Gust Speed mph / km/h   
Visibility 9 miles / 14 kilometers   
Events Rain , Snow   

Key: T is trace of precipitation, MM is missing value
Source: NWS Daily Summary
Time(PST)TemperatureDew PointHumidity Pressure Visibility Wind DirectionWind SpeedGust SpeedPrecipitationEvents Conditions
12:19 AM 24.8°F / -4.0°C 23.0°F / -5.0°C 93% 29.94 in / 1013.8 hPa 10.0 miles / 16.1 kilometers SSE 4.6 mph / 7.4 km/h - N/A   Scattered Clouds
12:36 AM 26.6°F / -3.0°C 23.0°F / -5.0°C 86% 29.95 in / 1014.1 hPa 10.0 miles / 16.1 kilometers SSE 4.6 mph / 7.4 km/h - N/A   Mostly Cloudy
12:58 AM 26.4°F / -3.1°C 24.1°F / -4.4°C 91% 30.03 in / 1016.8 hPa 10.0 miles / 16.1 kilometers SSE 4.6 mph / 7.4 km/h - 0.00 in / 0.0 cm   Overcast
1:58 AM 28.4°F / -2.0°C 25.7°F / -3.5°C 90% 30.02 in / 1016.6 hPa 10.0 miles / 16.1 kilometers SSE 3.5 mph / 5.6 km/h - N/A   Overcast
2:18 AM 28.4°F / -2.0°C 24.8°F / -4.0°C 86% 29.95 in / 1014.1 hPa 10.0 miles / 16.1 kilometers SSE 5.8 mph / 9.3 km/h - N/A   Overcast
2:24 AM 28.4°F / -2.0°C 26.6°F / -3.0°C 93% 29.95 in / 1014.1 hPa 10.0 miles / 16.1 kilometers SSE 6.9 mph / 11.1 km/h - N/A   Overcast
2:45 AM 28.4°F / -2.0°C 26.6°F / -3.0°C 93% 29.95 in / 1014.1 hPa 10.0 miles / 16.1 kilometers SSE 5.8 mph / 9.3 km/h - N/A   Overcast
2:58 AM 28.4°F / -2.0°C 25.7°F / -3.5°C 90% 30.02 in / 1016.6 hPa 10.0 miles / 16.1 kilometers SSE 4.6 mph / 7.4 km/h - 0.00 in / 0.0 cm   Overcast
2:59 AM 28.4°F / -2.0°C 24.8°F / -4.0°C 86% 29.96 in / 1014.4 hPa 10.0 miles / 16.1 kilometers SSE 4.6 mph / 7.4 km/h - N/A   Overcast
3:58 AM 28.4°F / -2.0°C 25.5°F / -3.6°C 89% 30.02 in / 1016.6 hPa 10.0 miles / 16.1 kilometers SE 6.9 mph / 11.1 km/h - 0.00 in / 0.0 cm   Overcast
4:58 AM 27.1°F / -2.7°C 24.6°F / -4.1°C 90% 30.04 in / 1017.2 hPa 10.0 miles / 16.1 kilometers SSE 4.6 mph / 7.4 km/h - N/A   Clear
5:30 AM 26.6°F / -3.0°C 24.8°F / -4.0°C 93% 29.95 in / 1014.1 hPa 10.0 miles / 16.1 kilometers SSE 4.6 mph / 7.4 km/h - N/A   Overcast
5:43 AM 26.6°F / -3.0°C 24.8°F / -4.0°C 93% 29.95 in / 1014.1 hPa 10.0 miles / 16.1 kilometers SSE 6.9 mph / 11.1 km/h - N/A   Overcast
5:58 AM 27.1°F / -2.7°C 25.2°F / -3.8°C 92% 30.04 in / 1017.0 hPa 10.0 miles / 16.1 kilometers SSE 10.4 mph / 16.7 km/h - 0.00 in / 0.0 cm   Overcast
6:58 AM 26.8°F / -2.9°C 25.3°F / -3.7°C 94% 30.02 in / 1016.5 hPa 10.0 miles / 16.1 kilometers SSE 9.2 mph / 14.8 km/h - N/A   Overcast
7:49 AM 28.4°F / -2.0°C 26.6°F / -3.0°C 93% 29.96 in / 1014.4 hPa 10.0 miles / 16.1 kilometers SSE 5.8 mph / 9.3 km/h - N/A   Mostly Cloudy
7:58 AM 27.7°F / -2.4°C 26.2°F / -3.2°C 94% 30.05 in / 1017.4 hPa 10.0 miles / 16.1 kilometers South 8.1 mph / 13.0 km/h - N/A   Mostly Cloudy
8:03 AM 28.4°F / -2.0°C 26.6°F / -3.0°C 93% 29.96 in / 1014.4 hPa 10.0 miles / 16.1 kilometers South 10.4 mph / 16.7 km/h - N/A   Mostly Cloudy
8:13 AM 28.4°F / -2.0°C 26.6°F / -3.0°C 93% 29.96 in / 1014.4 hPa 10.0 miles / 16.1 kilometers South 10.4 mph / 16.7 km/h - N/A   Overcast
8:43 AM 30.2°F / -1.0°C 28.4°F / -2.0°C 93% 29.95 in / 1014.1 hPa 10.0 miles / 16.1 kilometers South 11.5 mph / 18.5 km/h - N/A   Overcast
8:58 AM 29.7°F / -1.3°C 28.4°F / -2.0°C 95% 30.04 in / 1017.0 hPa 10.0 miles / 16.1 kilometers South 10.4 mph / 16.7 km/h - N/A   Overcast
9:11 AM 32.0°F / 0.0°C 28.4°F / -2.0°C 87% 29.96 in / 1014.4 hPa 10.0 miles / 16.1 kilometers South 10.4 mph / 16.7 km/h - N/A   Overcast
9:25 AM 32.0°F / 0.0°C 28.4°F / -2.0°C 87% 29.96 in / 1014.4 hPa 10.0 miles / 16.1 kilometers SSW 11.5 mph / 18.5 km/h - N/A   Overcast
9:30 AM 32.0°F / 0.0°C 30.2°F / -1.0°C 93% 29.95 in / 1014.1 hPa 10.0 miles / 16.1 kilometers South 10.4 mph / 16.7 km/h - N/A   Overcast
9:35 AM 32.0°F / 0.0°C 30.2°F / -1.0°C 93% 29.95 in / 1014.1 hPa 10.0 miles / 16.1 kilometers South 12.7 mph / 20.4 km/h - N/A   Overcast
9:45 AM 32.0°F / 0.0°C 30.2°F / -1.0°C 93% 29.96 in / 1014.4 hPa 10.0 miles / 16.1 kilometers SSW 13.8 mph / 22.2 km/h - N/A   Overcast
9:58 AM 31.5°F / -0.3°C 30.2°F / -1.0°C 95% 30.03 in / 1016.8 hPa 10.0 miles / 16.1 kilometers South 10.4 mph / 16.7 km/h - 0.00 in / 0.0 cm   Overcast
10:44 AM 32.0°F / 0.0°C 30.2°F / -1.0°C 93% 29.95 in / 1014.1 hPa 10.0 miles / 16.1 kilometers South 9.2 mph / 14.8 km/h - N/A   Overcast
10:47 AM 32.0°F / 0.0°C 30.2°F / -1.0°C 93% 29.95 in / 1014.1 hPa 10.0 miles / 16.1 kilometers South 6.9 mph / 11.1 km/h - N/A   Overcast
10:52 AM 32.0°F / 0.0°C 32.0°F / 0.0°C 100% 29.95 in / 1014.1 hPa 10.0 miles / 16.1 kilometers South 9.2 mph / 14.8 km/h - N/A   Overcast
10:58 AM 31.8°F / -0.1°C 30.4°F / -0.9°C 94% 30.03 in / 1016.8 hPa 10.0 miles / 16.1 kilometers South 9.2 mph / 14.8 km/h - 0.00 in / 0.0 cm   Overcast
10:59 AM 32.0°F / 0.0°C 30.2°F / -1.0°C 93% 29.95 in / 1014.1 hPa 10.0 miles / 16.1 kilometers South 9.2 mph / 14.8 km/h - N/A   Overcast
11:39 AM 32.0°F / 0.0°C 32.0°F / 0.0°C 100% 29.94 in / 1013.8 hPa 4.0 miles / 6.4 kilometers SSW 10.4 mph / 16.7 km/h - N/A Snow Light Snow
11:54 AM 32.0°F / 0.0°C 32.0°F / 0.0°C 100% 29.94 in / 1013.8 hPa 2.5 miles / 4.0 kilometers SSW 10.4 mph / 16.7 km/h - N/A Snow Light Snow
11:58 AM 31.8°F / -0.1°C 30.9°F / -0.6°C 96% 30.02 in / 1016.5 hPa 2.5 miles / 4.0 kilometers SSW 10.4 mph / 16.7 km/h - 0.00 in / 0.0 cm Snow Light Snow
12:03 PM 32.0°F / 0.0°C 32.0°F / 0.0°C 100% 29.94 in / 1013.8 hPa 3.0 miles / 4.8 kilometers SSW 9.2 mph / 14.8 km/h - N/A Snow Light Snow
12:48 PM 32.0°F / 0.0°C 32.0°F / 0.0°C 100% 29.93 in / 1013.4 hPa 2.0 miles / 3.2 kilometers SW 11.5 mph / 18.5 km/h - N/A Snow Light Snow
12:53 PM 32.0°F / 0.0°C 32.0°F / 0.0°C 100% 29.93 in / 1013.4 hPa 1.8 miles / 2.8 kilometers SW 12.7 mph / 20.4 km/h - N/A Snow Light Snow
12:58 PM 32.0°F / 0.0°C 32.0°F / 0.0°C 100% 30.01 in / 1016.1 hPa 1.5 miles / 2.4 kilometers SW 11.5 mph / 18.5 km/h - 0.01 in / 0.3 cm Snow Light Snow
1:08 PM 32.0°F / 0.0°C 32.0°F / 0.0°C 100% 29.93 in / 1013.4 hPa 1.8 miles / 2.8 kilometers SW 9.2 mph / 14.8 km/h - N/A Snow Light Snow
1:28 PM 32.0°F / 0.0°C 32.0°F / 0.0°C 100% 29.93 in / 1013.4 hPa 2.0 miles / 3.2 kilometers SW 9.2 mph / 14.8 km/h - N/A Snow Light Snow
1:33 PM 32.0°F / 0.0°C 32.0°F / 0.0°C 100% 29.93 in / 1013.4 hPa 1.8 miles / 2.8 kilometers SW 10.4 mph / 16.7 km/h - N/A Snow Light Snow
1:38 PM 32.0°F / 0.0°C 32.0°F / 0.0°C 100% 29.92 in / 1013.1 hPa 2.0 miles / 3.2 kilometers SW 10.4 mph / 16.7 km/h - N/A Snow Light Snow
1:43 PM 32.0°F / 0.0°C 32.0°F / 0.0°C 100% 29.92 in / 1013.1 hPa 2.0 miles / 3.2 kilometers SSW 8.1 mph / 13.0 km/h - N/A Snow Light Snow
1:53 PM 32.0°F / 0.0°C 32.0°F / 0.0°C 100% 29.92 in / 1013.1 hPa 7.0 miles / 11.3 kilometers SSW 9.2 mph / 14.8 km/h - N/A Rain Light Rain
1:58 PM 32.5°F / 0.3°C 31.5°F / -0.3°C 96% 30.01 in / 1016.1 hPa 10.0 miles / 16.1 kilometers SSW 9.2 mph / 14.8 km/h - 0.00 in / 0.0 cm Rain Light Rain
2:03 PM 32.0°F / 0.0°C 32.0°F / 0.0°C 100% 29.92 in / 1013.1 hPa 10.0 miles / 16.1 kilometers SW 13.8 mph / 22.2 km/h - N/A Rain Light Rain
2:08 PM 32.0°F / 0.0°C 32.0°F / 0.0°C 100% 29.93 in / 1013.4 hPa 10.0 miles / 16.1 kilometers SW 12.7 mph / 20.4 km/h - N/A   Light Drizzle
2:38 PM 33.8°F / 1.0°C 32.0°F / 0.0°C 93% 29.93 in / 1013.4 hPa 10.0 miles / 16.1 kilometers SW 13.8 mph / 22.2 km/h - N/A Rain Light Rain
2:58 PM 34.5°F / 1.4°C 32.4°F / 0.2°C 92% 29.99 in / 1015.6 hPa 10.0 miles / 16.1 kilometers SSW 12.7 mph / 20.4 km/h - 0.00 in / 0.0 cm Rain Light Rain
2:59 PM 35.6°F / 2.0°C 32.0°F / 0.0°C 87% 29.92 in / 1013.1 hPa 10.0 miles / 16.1 kilometers SSW 13.8 mph / 22.2 km/h - N/A   Overcast
3:00 PM 35.6°F / 2.0°C 32.0°F / 0.0°C 87% 29.92 in / 1013.1 hPa 10.0 miles / 16.1 kilometers SW 12.7 mph / 20.4 km/h - N/A Rain Light Rain
3:35 PM 35.6°F / 2.0°C 32.0°F / 0.0°C 87% 29.92 in / 1013.1 hPa 10.0 miles / 16.1 kilometers SW 9.2 mph / 14.8 km/h - N/A   Light Drizzle
3:58 PM 36.1°F / 2.3°C 32.0°F / 0.0°C 85% 29.99 in / 1015.6 hPa 10.0 miles / 16.1 kilometers SSW 12.7 mph / 20.4 km/h - 0.00 in / 0.0 cm   Light Drizzle
4:04 PM 35.6°F / 2.0°C 32.0°F / 0.0°C 87% 29.92 in / 1013.1 hPa 10.0 miles / 16.1 kilometers SW 11.5 mph / 18.5 km/h - N/A   Scattered Clouds
4:58 PM 35.2°F / 1.8°C 30.0°F / -1.1°C 81% 29.99 in / 1015.6 hPa 10.0 miles / 16.1 kilometers SW 9.2 mph / 14.8 km/h - 0.00 in / 0.0 cm   Partly Cloudy
5:58 PM 34.2°F / 1.2°C 29.7°F / -1.3°C 84% 30.00 in / 1015.8 hPa 10.0 miles / 16.1 kilometers South 6.9 mph / 11.1 km/h - N/A   Mostly Cloudy
6:58 PM 34.0°F / 1.1°C 29.5°F / -1.4°C 84% 30.01 in / 1016.1 hPa 10.0 miles / 16.1 kilometers South 10.4 mph / 16.7 km/h - N/A   Scattered Clouds
7:58 PM 32.4°F / 0.2°C 28.9°F / -1.7°C 87% 30.00 in / 1015.8 hPa 10.0 miles / 16.1 kilometers South 11.5 mph / 18.5 km/h - N/A   Mostly Cloudy
8:50 PM 32.0°F / 0.0°C 30.2°F / -1.0°C 93% 29.92 in / 1013.1 hPa 10.0 miles / 16.1 kilometers South 10.4 mph / 16.7 km/h - N/A   Overcast
8:58 PM 32.5°F / 0.3°C 29.5°F / -1.4°C 88% 29.99 in / 1015.6 hPa 10.0 miles / 16.1 kilometers South 10.4 mph / 16.7 km/h - 0.00 in / 0.0 cm   Light Drizzle
9:03 PM 32.0°F / 0.0°C 30.2°F / -1.0°C 93% 29.93 in / 1013.4 hPa 10.0 miles / 16.1 kilometers South 10.4 mph / 16.7 km/h - N/A   Overcast
9:11 PM 32.0°F / 0.0°C 30.2°F / -1.0°C 93% 29.92 in / 1013.1 hPa 10.0 miles / 16.1 kilometers South 11.5 mph / 18.5 km/h - N/A   Light Drizzle
9:21 PM 32.0°F / 0.0°C 30.2°F / -1.0°C 93% 29.93 in / 1013.4 hPa 10.0 miles / 16.1 kilometers South 10.4 mph / 16.7 km/h - N/A   Overcast
9:28 PM 32.0°F / 0.0°C 30.2°F / -1.0°C 93% 29.93 in / 1013.4 hPa 10.0 miles / 16.1 kilometers South 10.4 mph / 16.7 km/h - N/A   Light Drizzle
9:38 PM 32.0°F / 0.0°C 30.2°F / -1.0°C 93% 29.93 in / 1013.4 hPa 10.0 miles / 16.1 kilometers South 11.5 mph / 18.5 km/h - N/A   Overcast
9:51 PM 32.0°F / 0.0°C 30.2°F / -1.0°C 93% 29.93 in / 1013.4 hPa 10.0 miles / 16.1 kilometers South 10.4 mph / 16.7 km/h - N/A   Light Drizzle
9:53 PM 32.0°F / 0.0°C 30.2°F / -1.0°C 93% 29.93 in / 1013.4 hPa 10.0 miles / 16.1 kilometers South 12.7 mph / 20.4 km/h - N/A   Overcast
9:58 PM 32.9°F / 0.5°C 29.8°F / -1.2°C 88% 30.00 in / 1015.9 hPa 10.0 miles / 16.1 kilometers South 12.7 mph / 20.4 km/h - 0.00 in / 0.0 cm   Overcast
10:00 PM 32.0°F / 0.0°C 30.2°F / -1.0°C 93% 29.93 in / 1013.4 hPa 10.0 miles / 16.1 kilometers South 12.7 mph / 20.4 km/h - N/A   Light Drizzle
10:01 PM 32.0°F / 0.0°C 30.2°F / -1.0°C 93% 29.93 in / 1013.4 hPa 10.0 miles / 16.1 kilometers South 12.7 mph / 20.4 km/h - N/A   Overcast
10:37 PM 32.0°F / 0.0°C 30.2°F / -1.0°C 93% 29.93 in / 1013.4 hPa 10.0 miles / 16.1 kilometers South 12.7 mph / 20.4 km/h - N/A   Overcast
10:47 PM 32.0°F / 0.0°C 30.2°F / -1.0°C 93% 29.93 in / 1013.4 hPa 10.0 miles / 16.1 kilometers South 12.7 mph / 20.4 km/h - N/A   Mostly Cloudy
10:58 PM 32.0°F / -0.0°C 29.5°F / -1.4°C 90% 30.00 in / 1015.9 hPa 10.0 miles / 16.1 kilometers South 11.5 mph / 18.5 km/h - 0.00 in / 0.0 cm   Scattered Clouds
11:16 PM 32.0°F / 0.0°C 28.4°F / -2.0°C 87% 29.93 in / 1013.4 hPa 10.0 miles / 16.1 kilometers South 9.2 mph / 14.8 km/h - N/A   Clear
11:31 PM 32.0°F / 0.0°C 28.4°F / -2.0°C 87% 29.92 in / 1013.1 hPa 10.0 miles / 16.1 kilometers South 10.4 mph / 16.7 km/h - N/A   Clear
11:51 PM 32.0°F / 0.0°C 28.4°F / -2.0°C 87% 29.92 in / 1013.1 hPa 10.0 miles / 16.1 kilometers SSW 11.5 mph / 18.5 km/h - N/A   Clear
11:58 PM 30.6°F / -0.8°C 28.6°F / -1.9°C 92% 29.99 in / 1015.6 hPa 10.0 miles / 16.1 kilometers South 11.5 mph / 18.5 km/h - 0.00 in / 0.0 cm   Clear
Moon Phase
Feb. 21 Feb. 25 Mar. 04 Mar. 11 Mar. 19
Sunrise:06:45 AM (PST) Moon Rise:01:32 PM (PST)2/21
Sunset:05:23 PM (PST) Moon Set:04:04 AM (PST)2/21

Copyright © 2014 The Weather Underground, Inc.